Time,TemperatureF,DewpointF,PressureIn,WindDirection,WindDirectionDegrees,WindSpeedMPH,WindSpeedGustMPH,Humidity,HourlyPrecipIn,Conditions,Clouds,dailyrainin,SoftwareType,DateUTC
2013-02-18 00:00:00,19.1,8.1,30.20,ESE,123,4.0,12.2,62,0.00,,,0.00,WUHU216HW,2013-02-18 05:00:00,
2013-02-18 00:05:00,18.9,7.9,30.21,ESE,123,2.1,6.4,62,0.00,,,0.00,WUHU216HW,2013-02-18 05:05:00,
2013-02-18 00:10:00,18.9,8.0,30.21,ESE,123,1.8,6.4,62,0.00,,,0.00,WUHU216HW,2013-02-18 05:10:00,
2013-02-18 00:15:00,18.9,8.0,30.21,ESE,123,1.8,3.2,62,0.00,,,0.00,WUHU216HW,2013-02-18 05:15:00,
2013-02-18 00:20:00,18.9,8.0,30.22,ESE,123,1.4,3.2,62,0.00,,,0.00,WUHU216HW,2013-02-18 05:20:00,
2013-02-18 00:25:00,18.7,7.9,30.22,ESE,123,1.8,10.4,62,0.00,,,0.00,WUHU216HW,2013-02-18 05:25:00,
2013-02-18 00:30:00,18.7,7.9,30.22,ESE,123,3.5,10.4,62,0.00,,,0.00,WUHU216HW,2013-02-18 05:30:00,
2013-02-18 00:35:00,18.7,7.9,30.22,ESE,123,3.2,5.0,62,0.00,,,0.00,WUHU216HW,2013-02-18 05:35:00,
2013-02-18 00:40:00,18.5,7.8,30.22,ESE,123,3.2,9.0,62,0.00,,,0.00,WUHU216HW,2013-02-18 05:40:00,
2013-02-18 00:45:00,18.5,7.4,30.22,ESE,123,6.4,10.1,61,0.00,,,0.00,WUHU216HW,2013-02-18 05:45:00,
2013-02-18 00:50:00,18.5,7.8,30.22,ESE,123,7.2,12.2,62,0.00,,,0.00,WUHU216HW,2013-02-18 05:50:00,
2013-02-18 00:55:00,18.5,7.5,30.22,ESE,123,6.1,13.6,61,0.00,,,0.00,WUHU216HW,2013-02-18 05:55:00,
2013-02-18 01:00:00,18.5,7.5,30.21,ESE,123,8.6,13.6,62,0.00,,,0.00,WUHU216HW,2013-02-18 06:00:00,
2013-02-18 01:05:00,18.5,7.5,30.22,ESE,123,7.5,12.2,62,0.00,,,0.00,WUHU216HW,2013-02-18 06:05:00,
2013-02-18 01:10:00,18.5,7.6,30.21,ESE,123,5.0,12.2,62,0.00,,,0.00,WUHU216HW,2013-02-18 06:10:00,
2013-02-18 01:15:00,18.5,7.6,30.21,ESE,123,4.3,13.0,62,0.00,,,0.00,WUHU216HW,2013-02-18 06:15:00,
2013-02-18 01:20:00,18.5,7.6,30.21,ESE,123,6.4,13.0,62,0.00,,,0.00,WUHU216HW,2013-02-18 06:20:00,
2013-02-18 01:25:00,18.5,7.6,30.21,ESE,123,8.6,12.5,62,0.00,,,0.00,WUHU216HW,2013-02-18 06:25:00,
2013-02-18 01:30:00,18.3,7.8,30.21,ESE,123,2.1,11.5,63,0.00,,,0.00,WUHU216HW,2013-02-18 06:30:00,
2013-02-18 01:35:00,18.3,7.8,30.22,ESE,123,2.6,8.6,63,0.00,,,0.00,WUHU216HW,2013-02-18 06:35:00,
2013-02-18 01:40:00,18.2,7.7,30.21,ESE,123,7.2,7.2,63,0.00,,,0.00,WUHU216HW,2013-02-18 06:40:00,
2013-02-18 01:45:00,18.2,7.8,30.22,ESE,123,2.9,7.2,63,0.00,,,0.00,WUHU216HW,2013-02-18 06:45:00,
2013-02-18 01:50:00,18.0,7.9,30.22,ESE,123,3.5,7.2,64,0.00,,,0.00,WUHU216HW,2013-02-18 06:50:00,
2013-02-18 01:55:00,17.8,7.8,30.22,ESE,123,5.4,6.1,64,0.00,,,0.00,WUHU216HW,2013-02-18 06:55:00,
2013-02-18 02:00:00,17.8,7.8,30.22,ESE,123,4.0,6.1,64,0.00,,,0.00,WUHU216HW,2013-02-18 07:00:00,
2013-02-18 02:05:00,17.8,7.8,30.22,ESE,123,3.5,5.8,64,0.00,,,0.00,WUHU216HW,2013-02-18 07:05:00,
2013-02-18 02:10:00,18.0,7.6,30.23,ESE,123,1.8,6.4,63,0.00,,,0.00,WUHU216HW,2013-02-18 07:10:00,
2013-02-18 02:15:00,18.0,7.7,30.23,ESE,123,4.0,8.2,63,0.00,,,0.00,WUHU216HW,2013-02-18 07:15:00,
2013-02-18 02:20:00,18.0,8.0,30.23,ESE,123,0.3,8.2,64,0.00,,,0.00,WUHU216HW,2013-02-18 07:20:00,
2013-02-18 02:25:00,17.8,7.8,30.24,ESE,123,0.6,5.0,64,0.00,,,0.00,WUHU216HW,2013-02-18 07:25:00,
2013-02-18 02:30:00,17.8,7.8,30.23,ESE,123,0.3,3.2,64,0.00,,,0.00,WUHU216HW,2013-02-18 07:30:00,
2013-02-18 02:35:00,17.4,7.8,30.23,ESE,123,1.8,3.2,65,0.00,,,0.00,WUHU216HW,2013-02-18 07:35:00,
2013-02-18 02:40:00,17.4,7.8,30.23,ESE,123,5.8,5.8,65,0.00,,,0.00,WUHU216HW,2013-02-18 07:40:00,
2013-02-18 02:45:00,17.4,7.8,30.23,ESE,123,10.4,10.4,65,0.00,,,0.00,WUHU216HW,2013-02-18 07:45:00,
2013-02-18 02:50:00,17.6,8.0,30.23,ESE,123,7.5,10.4,65,0.00,,,0.00,WUHU216HW,2013-02-18 07:50:00,
2013-02-18 02:55:00,17.8,8.2,30.23,ESE,123,4.3,9.3,65,0.00,,,0.00,WUHU216HW,2013-02-18 07:55:00,
2013-02-18 03:00:00,17.8,8.2,30.23,ESE,123,3.2,9.3,66,0.00,,,0.00,WUHU216HW,2013-02-18 08:00:00,
2013-02-18 03:05:00,17.6,8.0,30.24,ESE,123,4.3,7.2,66,0.00,,,0.00,WUHU216HW,2013-02-18 08:05:00,
2013-02-18 03:10:00,17.6,8.0,30.24,ESE,123,2.9,7.2,66,0.00,,,0.00,WUHU216HW,2013-02-18 08:10:00,
2013-02-18 03:15:00,17.6,8.0,30.24,ESE,123,2.9,7.2,66,0.00,,,0.00,WUHU216HW,2013-02-18 08:15:00,
2013-02-18 03:20:00,17.6,8.1,30.23,ESE,123,4.6,7.5,66,0.00,,,0.00,WUHU216HW,2013-02-18 08:20:00,
2013-02-18 03:25:00,17.6,8.1,30.23,ESE,123,4.0,17.1,66,0.00,,,0.00,WUHU216HW,2013-02-18 08:25:00,
2013-02-18 03:30:00,17.8,8.2,30.22,ESE,123,4.3,17.1,66,0.00,,,0.00,WUHU216HW,2013-02-18 08:30:00,
2013-02-18 03:35:00,17.6,8.1,30.22,ESE,123,1.1,6.1,66,0.00,,,0.00,WUHU216HW,2013-02-18 08:35:00,
2013-02-18 03:40:00,17.6,8.1,30.22,ESE,123,4.6,9.0,66,0.00,,,0.00,WUHU216HW,2013-02-18 08:40:00,
2013-02-18 03:45:00,17.6,8.0,30.22,ESE,123,2.1,9.0,66,0.00,,,0.00,WUHU216HW,2013-02-18 08:45:00,
2013-02-18 03:50:00,17.6,8.0,30.22,ESE,123,0.3,6.9,66,0.00,,,0.00,WUHU216HW,2013-02-18 08:50:00,
2013-02-18 03:55:00,17.4,7.9,30.23,ESE,123,2.1,5.0,66,0.00,,,0.00,WUHU216HW,2013-02-18 08:55:00,
2013-02-18 04:00:00,17.4,7.8,30.23,ESE,123,3.5,6.1,66,0.00,,,0.00,WUHU216HW,2013-02-18 09:00:00,
2013-02-18 04:05:00,17.3,7.7,30.23,ESE,123,0.6,6.1,65,0.00,,,0.00,WUHU216HW,2013-02-18 09:05:00,
2013-02-18 04:10:00,17.3,7.7,30.23,ESE,123,2.9,14.7,65,0.00,,,0.00,WUHU216HW,2013-02-18 09:10:00,
2013-02-18 04:15:00,17.3,7.7,30.23,ESE,123,5.4,14.7,65,0.00,,,0.00,WUHU216HW,2013-02-18 09:15:00,
2013-02-18 04:20:00,17.1,7.5,30.23,ESE,123,0.6,8.6,65,0.00,,,0.00,WUHU216HW,2013-02-18 09:20:00,
2013-02-18 04:26:00,17.1,7.5,30.24,ESE,123,19.4,19.4,65,0.00,,,0.00,WUHU216HW,2013-02-18 09:26:00,
2013-02-18 04:31:00,17.1,7.5,30.24,ESE,123,1.4,19.4,65,0.00,,,0.00,WUHU216HW,2013-02-18 09:31:00,
2013-02-18 04:36:00,17.1,7.5,30.25,ESE,123,2.9,19.4,65,0.00,,,0.00,WUHU216HW,2013-02-18 09:36:00,
2013-02-18 04:41:00,17.1,7.5,30.25,ESE,123,2.9,8.2,65,0.00,,,0.00,WUHU216HW,2013-02-18 09:41:00,
2013-02-18 04:46:00,17.1,7.5,30.25,ESE,123,5.4,5.8,65,0.00,,,0.00,WUHU216HW,2013-02-18 09:46:00,
2013-02-18 04:51:00,17.1,7.5,30.25,ESE,123,2.1,5.8,65,0.00,,,0.00,WUHU216HW,2013-02-18 09:51:00,
2013-02-18 04:56:00,17.1,7.5,30.25,ESE,123,4.0,7.8,65,0.00,,,0.00,WUHU216HW,2013-02-18 09:56:00,
2013-02-18 05:01:00,17.3,7.6,30.26,ESE,123,4.3,7.8,65,0.00,,,0.00,WUHU216HW,2013-02-18 10:01:00,
2013-02-18 05:06:00,17.3,7.6,30.26,ESE,123,1.8,6.4,65,0.00,,,0.00,WUHU216HW,2013-02-18 10:06:00,
2013-02-18 05:11:00,17.1,7.4,30.26,ESE,123,1.1,6.4,65,0.00,,,0.00,WUHU216HW,2013-02-18 10:11:00,
2013-02-18 05:16:00,17.1,7.4,30.26,ESE,123,4.6,8.2,65,0.00,,,0.00,WUHU216HW,2013-02-18 10:16:00,
2013-02-18 05:21:00,17.1,7.4,30.27,ESE,123,1.8,8.2,65,0.00,,,0.00,WUHU216HW,2013-02-18 10:21:00,
2013-02-18 05:26:00,16.9,7.2,30.27,ESE,123,0.0,6.1,65,0.00,,,0.00,WUHU216HW,2013-02-18 10:26:00,
2013-02-18 05:31:00,16.4,6.7,30.28,ESE,123,0.0,2.1,65,0.00,,,0.00,WUHU216HW,2013-02-18 10:31:00,
2013-02-18 05:36:00,16.0,6.6,30.28,ESE,123,0.6,2.1,66,0.00,,,0.00,WUHU216HW,2013-02-18 10:36:00,
2013-02-18 05:41:00,16.0,6.9,30.28,ESE,123,0.3,3.5,67,0.00,,,0.00,WUHU216HW,2013-02-18 10:41:00,
2013-02-18 05:46:00,15.6,6.9,30.28,ESE,123,0.6,3.5,68,0.00,,,0.00,WUHU216HW,2013-02-18 10:46:00,
2013-02-18 05:51:00,15.8,6.7,30.28,ESE,123,0.6,1.8,67,0.00,,,0.00,WUHU216HW,2013-02-18 10:51:00,
2013-02-18 05:56:00,16.4,7.3,30.28,ESE,123,0.6,10.1,67,0.00,,,0.00,WUHU216HW,2013-02-18 10:56:00,
2013-02-18 06:01:00,16.2,7.0,30.28,ESE,123,4.6,10.1,67,0.00,,,0.00,WUHU216HW,2013-02-18 11:01:00,
2013-02-18 06:06:00,16.0,6.8,30.28,ESE,123,0.6,4.6,66,0.00,,,0.00,WUHU216HW,2013-02-18 11:06:00,
2013-02-18 06:11:00,15.6,7.1,30.28,ESE,123,1.4,4.3,68,0.00,,,0.00,WUHU216HW,2013-02-18 11:11:00,
2013-02-18 06:16:00,15.5,6.6,30.29,ESE,123,0.6,2.6,67,0.00,,,0.00,WUHU216HW,2013-02-18 11:16:00,
2013-02-18 06:21:00,15.3,6.4,30.29,ESE,123,0.0,1.8,67,0.00,,,0.00,WUHU216HW,2013-02-18 11:21:00,
2013-02-18 06:26:00,14.9,6.3,30.28,ESE,123,0.3,1.4,68,0.00,,,0.00,WUHU216HW,2013-02-18 11:26:00,
2013-02-18 06:31:00,14.7,6.1,30.29,ESE,123,1.1,1.8,68,0.00,,,0.00,WUHU216HW,2013-02-18 11:31:00,
2013-02-18 06:36:00,14.4,6.1,30.29,ESE,123,0.0,1.8,69,0.00,,,0.00,WUHU216HW,2013-02-18 11:36:00,
2013-02-18 06:41:00,14.0,5.7,30.29,ESE,123,1.4,1.8,69,0.00,,,0.00,WUHU216HW,2013-02-18 11:41:00,
2013-02-18 06:46:00,13.7,5.7,30.29,ESE,123,0.0,1.8,70,0.00,,,0.00,WUHU216HW,2013-02-18 11:46:00,
2013-02-18 06:51:00,13.5,5.5,30.29,ESE,123,0.0,1.8,70,0.00,,,0.00,WUHU216HW,2013-02-18 11:51:00,
2013-02-18 06:56:00,13.5,5.5,30.30,ESE,123,0.0,1.8,70,0.00,,,0.00,WUHU216HW,2013-02-18 11:56:00,
2013-02-18 07:01:00,13.5,5.4,30.30,ESE,123,1.1,1.8,70,0.00,,,0.00,WUHU216HW,2013-02-18 12:01:00,
2013-02-18 07:06:00,13.3,5.5,30.30,ESE,123,0.6,1.8,71,0.00,,,0.00,WUHU216HW,2013-02-18 12:06:00,
2013-02-18 07:11:00,13.3,5.5,30.30,ESE,123,1.8,1.8,70,0.00,,,0.00,WUHU216HW,2013-02-18 12:11:00,
2013-02-18 07:17:00,13.3,5.8,30.30,ESE,123,0.6,1.8,71,0.00,,,0.00,WUHU216HW,2013-02-18 12:17:00,
2013-02-18 07:22:00,13.5,5.6,30.30,ESE,123,0.6,1.8,70,0.00,,,0.00,WUHU216HW,2013-02-18 12:22:00,
2013-02-18 07:26:00,13.8,6.5,30.30,ESE,123,0.0,1.4,72,0.00,,,0.00,WUHU216HW,2013-02-18 12:26:00,
2013-02-18 07:31:00,14.2,6.9,30.30,ESE,123,0.6,1.4,72,0.00,,,0.00,WUHU216HW,2013-02-18 12:31:00,
2013-02-18 07:36:00,14.9,7.5,30.31,ESE,123,0.0,1.1,72,0.00,,,0.00,WUHU216HW,2013-02-18 12:36:00,
2013-02-18 07:41:00,15.6,8.2,30.31,ESE,123,0.3,1.8,72,0.00,,,0.00,WUHU216HW,2013-02-18 12:41:00,
2013-02-18 07:46:00,16.2,8.4,30.32,ESE,123,0.0,1.8,71,0.00,,,0.00,WUHU216HW,2013-02-18 12:46:00,
2013-02-18 07:51:00,16.9,9.0,30.32,ESE,123,1.8,2.9,71,0.00,,,0.00,WUHU216HW,2013-02-18 12:51:00,
2013-02-18 07:56:00,18.2,9.6,30.32,ESE,123,6.1,6.1,69,0.00,,,0.00,WUHU216HW,2013-02-18 12:56:00,
2013-02-18 08:02:00,20.0,10.6,30.32,ESE,123,2.6,6.1,66,0.00,,,0.00,WUHU216HW,2013-02-18 13:02:00,
2013-02-18 08:07:00,21.0,10.9,30.32,ESE,123,6.1,6.4,64,0.00,,,0.00,WUHU216HW,2013-02-18 13:07:00,
2013-02-18 08:12:00,20.9,10.0,30.33,ESE,123,2.9,6.9,62,0.00,,,0.00,WUHU216HW,2013-02-18 13:12:00,
2013-02-18 08:17:00,21.0,10.1,30.33,ESE,123,1.8,6.9,62,0.00,,,0.00,WUHU216HW,2013-02-18 13:17:00,
2013-02-18 08:22:00,21.2,10.6,30.33,ESE,123,4.6,5.8,63,0.00,,,0.00,WUHU216HW,2013-02-18 13:22:00,
2013-02-18 08:27:00,21.4,10.0,30.33,ESE,123,4.3,5.4,61,0.00,,,0.00,WUHU216HW,2013-02-18 13:27:00,
2013-02-18 08:32:00,21.8,10.7,30.33,ESE,123,4.3,5.4,62,0.00,,,0.00,WUHU216HW,2013-02-18 13:32:00,
2013-02-18 08:37:00,22.5,11.3,30.33,ESE,123,0.6,5.0,62,0.00,,,0.00,WUHU216HW,2013-02-18 13:37:00,
2013-02-18 08:42:00,22.8,11.6,30.33,ESE,123,1.1,5.0,62,0.00,,,0.00,WUHU216HW,2013-02-18 13:42:00,
2013-02-18 08:47:00,23.2,11.5,30.33,ESE,123,1.1,4.0,60,0.00,,,0.00,WUHU216HW,2013-02-18 13:47:00,
2013-02-18 08:52:00,23.4,11.3,30.33,ESE,123,1.8,4.0,59,0.00,,,0.00,WUHU216HW,2013-02-18 13:52:00,
2013-02-18 08:57:00,23.4,10.9,30.33,ESE,123,6.9,6.9,58,0.00,,,0.00,WUHU216HW,2013-02-18 13:57:00,
2013-02-18 09:02:00,23.6,11.0,30.33,ESE,123,1.8,6.9,58,0.00,,,0.00,WUHU216HW,2013-02-18 14:02:00,
2013-02-18 09:07:00,23.7,10.6,30.33,ESE,123,0.6,6.9,57,0.00,,,0.00,WUHU216HW,2013-02-18 14:07:00,
2013-02-18 09:12:00,24.1,11.0,30.33,ESE,123,0.6,4.0,57,0.00,,,0.00,WUHU216HW,2013-02-18 14:12:00,
2013-02-18 09:17:00,24.6,11.0,30.33,ESE,123,2.9,4.0,56,0.00,,,0.00,WUHU216HW,2013-02-18 14:17:00,
2013-02-18 09:22:00,25.2,11.5,30.33,ESE,123,2.9,6.4,56,0.00,,,0.00,WUHU216HW,2013-02-18 14:22:00,
2013-02-18 09:27:00,25.7,11.9,30.33,ESE,123,2.9,6.4,55,0.00,,,0.00,WUHU216HW,2013-02-18 14:27:00,
2013-02-18 09:32:00,26.1,11.8,30.33,ESE,123,2.9,6.4,54,0.00,,,0.00,WUHU216HW,2013-02-18 14:32:00,
2013-02-18 09:37:00,26.1,11.3,30.33,ESE,123,1.1,6.4,53,0.00,,,0.00,WUHU216HW,2013-02-18 14:37:00,
2013-02-18 09:42:00,26.3,11.5,30.33,ESE,123,7.2,7.2,53,0.00,,,0.00,WUHU216HW,2013-02-18 14:42:00,
2013-02-18 09:47:00,26.4,11.5,30.33,ESE,123,2.9,7.2,53,0.00,,,0.00,WUHU216HW,2013-02-18 14:47:00,
2013-02-18 09:52:00,26.8,11.8,30.33,ESE,123,2.9,7.8,53,0.00,,,0.00,WUHU216HW,2013-02-18 14:52:00,
2013-02-18 09:57:00,27.2,11.7,30.33,SE,145,1.1,7.8,52,0.00,,,0.00,WUHU216HW,2013-02-18 14:57:00,
2013-02-18 10:03:00,27.9,11.8,30.32,NNW,348,2.1,3.2,51,0.00,,,0.00,WUHU216HW,2013-02-18 15:03:00,
2013-02-18 10:08:00,28.6,11.9,30.32,North,10,3.5,7.8,49,0.00,,,0.00,WUHU216HW,2013-02-18 15:08:00,
2013-02-18 10:13:00,28.2,12.0,30.32,North,10,4.0,7.8,50,0.00,,,0.00,WUHU216HW,2013-02-18 15:13:00,
2013-02-18 10:18:00,28.1,12.3,30.32,NW,325,1.8,8.6,51,0.00,,,0.00,WUHU216HW,2013-02-18 15:18:00,
2013-02-18 10:23:00,28.4,12.5,30.31,NNW,348,3.5,8.6,51,0.00,,,0.00,WUHU216HW,2013-02-18 15:23:00,
2013-02-18 10:28:00,28.4,12.4,30.31,ENE,78,2.9,7.5,51,0.00,,,0.00,WUHU216HW,2013-02-18 15:28:00,
2013-02-18 10:33:00,28.2,11.7,30.31,NW,325,2.9,7.5,50,0.00,,,0.00,WUHU216HW,2013-02-18 15:33:00,
2013-02-18 10:38:00,28.6,11.6,30.31,NNW,348,2.9,4.6,49,0.00,,,0.00,WUHU216HW,2013-02-18 15:38:00,
2013-02-18 10:43:00,29.0,12.3,30.31,North,10,4.3,6.4,49,0.00,,,0.00,WUHU216HW,2013-02-18 15:43:00,
2013-02-18 10:49:00,29.1,11.9,30.31,NNW,348,5.4,6.4,48,0.00,,,0.00,WUHU216HW,2013-02-18 15:49:00,
2013-02-18 10:54:00,29.3,11.5,30.31,North,10,6.4,6.4,47,0.00,,,0.00,WUHU216HW,2013-02-18 15:54:00,
2013-02-18 10:59:00,29.7,12.3,30.30,East,100,1.8,8.2,48,0.00,,,0.00,WUHU216HW,2013-02-18 15:59:00,
2013-02-18 11:04:00,29.9,12.0,30.30,NNW,348,4.3,8.2,47,0.00,,,0.00,WUHU216HW,2013-02-18 16:04:00,
2013-02-18 11:09:00,30.4,12.5,30.30,North,10,1.8,6.9,47,0.00,,,0.00,WUHU216HW,2013-02-18 16:09:00,
2013-02-18 11:14:00,30.9,12.4,30.30,NE,55,2.1,10.7,46,0.00,,,0.00,WUHU216HW,2013-02-18 16:14:00,
2013-02-18 11:19:00,31.5,12.5,30.30,NNW,348,6.4,10.7,45,0.00,,,0.00,WUHU216HW,2013-02-18 16:19:00,
2013-02-18 11:24:00,32.0,12.4,30.29,NNW,348,5.8,10.1,44,0.00,,,0.00,WUHU216HW,2013-02-18 16:24:00,
2013-02-18 11:29:00,32.4,12.8,30.29,NE,55,1.8,10.4,44,0.00,,,0.00,WUHU216HW,2013-02-18 16:29:00,
2013-02-18 11:34:00,32.2,12.0,30.29,NNW,348,9.0,12.5,43,0.00,,,0.00,WUHU216HW,2013-02-18 16:34:00,
2013-02-18 11:39:00,32.6,12.9,30.29,WSW,258,1.4,12.5,44,0.00,,,0.00,WUHU216HW,2013-02-18 16:39:00,
2013-02-18 11:44:00,32.7,13.6,30.29,North,10,10.7,10.7,45,0.00,,,0.00,WUHU216HW,2013-02-18 16:44:00,
2013-02-18 11:49:00,32.9,13.2,30.29,NNE,33,6.4,10.7,44,0.00,,,0.00,WUHU216HW,2013-02-18 16:49:00,
2013-02-18 11:54:00,33.1,13.4,30.29,NNW,348,11.0,11.0,44,0.00,,,0.00,WUHU216HW,2013-02-18 16:54:00,
2013-02-18 11:59:00,33.3,13.6,30.29,NNE,33,4.3,11.0,44,0.00,,,0.00,WUHU216HW,2013-02-18 16:59:00,
2013-02-18 12:04:00,32.9,12.7,30.28,NNE,33,3.2,11.0,43,0.00,,,0.00,WUHU216HW,2013-02-18 17:04:00,
2013-02-18 12:09:00,32.9,13.2,30.28,NW,325,3.5,5.8,44,0.00,,,0.00,WUHU216HW,2013-02-18 17:09:00,
2013-02-18 12:14:00,33.1,13.4,30.28,ENE,78,2.9,5.8,44,0.00,,,0.00,WUHU216HW,2013-02-18 17:14:00,
2013-02-18 12:19:00,33.5,13.8,30.27,NE,55,2.6,7.8,44,0.00,,,0.00,WUHU216HW,2013-02-18 17:19:00,
2013-02-18 12:24:00,33.3,13.0,30.27,NNW,348,14.2,14.2,43,0.00,,,0.00,WUHU216HW,2013-02-18 17:24:00,
2013-02-18 12:29:00,33.6,12.8,30.26,NNE,33,11.8,14.2,42,0.00,,,0.00,WUHU216HW,2013-02-18 17:29:00,
2013-02-18 12:34:00,34.0,13.1,30.26,NNW,348,12.2,14.2,42,0.00,,,0.00,WUHU216HW,2013-02-18 17:34:00,
2013-02-18 12:39:00,34.2,13.3,30.26,North,10,2.9,12.2,42,0.00,,,0.00,WUHU216HW,2013-02-18 17:39:00,
2013-02-18 12:44:00,34.5,13.6,30.25,East,100,4.3,11.8,42,0.00,,,0.00,WUHU216HW,2013-02-18 17:44:00,
2013-02-18 12:49:00,34.5,13.6,30.25,North,10,2.9,7.5,42,0.00,,,0.00,WUHU216HW,2013-02-18 17:49:00,
2013-02-18 12:54:00,34.9,13.9,30.25,North,10,1.8,4.3,42,0.00,,,0.00,WUHU216HW,2013-02-18 17:54:00,
2013-02-18 12:59:00,35.1,13.0,30.24,NNE,33,7.8,14.2,40,0.00,,,0.00,WUHU216HW,2013-02-18 17:59:00,
2013-02-18 13:04:00,35.4,13.8,30.24,NW,325,2.1,14.2,41,0.00,,,0.00,WUHU216HW,2013-02-18 18:04:00,
2013-02-18 13:09:00,36.0,13.8,30.23,ENE,78,2.9,13.6,40,0.00,,,0.00,WUHU216HW,2013-02-18 18:09:00,
2013-02-18 13:15:00,36.2,14.0,30.23,North,10,5.4,13.6,40,0.00,,,0.00,WUHU216HW,2013-02-18 18:15:00,
2013-02-18 13:20:00,36.5,13.7,30.23,NE,55,1.4,7.8,39,0.00,,,0.00,WUHU216HW,2013-02-18 18:20:00,
2013-02-18 13:25:00,36.5,14.3,30.23,ESE,123,6.4,8.2,40,0.00,,,0.00,WUHU216HW,2013-02-18 18:25:00,
2013-02-18 13:30:00,36.9,14.0,30.22,NNW,348,7.5,9.3,39,0.00,,,0.00,WUHU216HW,2013-02-18 18:30:00,
2013-02-18 13:35:00,37.4,14.5,30.22,NE,55,1.8,12.2,39,0.00,,,0.00,WUHU216HW,2013-02-18 18:35:00,
2013-02-18 13:40:00,37.4,13.9,30.22,North,10,13.6,13.6,38,0.00,,,0.00,WUHU216HW,2013-02-18 18:40:00,
2013-02-18 13:45:00,37.4,12.6,30.21,North,10,10.1,16.8,36,0.00,,,0.00,WUHU216HW,2013-02-18 18:45:00,
2013-02-18 13:50:00,37.8,13.0,30.21,North,10,13.9,16.8,36,0.00,,,0.00,WUHU216HW,2013-02-18 18:50:00,
2013-02-18 13:55:00,38.0,14.4,30.21,North,10,4.0,15.7,38,0.00,,,0.00,WUHU216HW,2013-02-18 18:55:00,
2013-02-18 14:00:00,38.5,13.6,30.21,NW,325,6.1,13.9,36,0.00,,,0.00,WUHU216HW,2013-02-18 19:00:00,
2013-02-18 14:05:00,38.7,13.8,30.21,NNW,348,3.5,11.0,36,0.00,,,0.00,WUHU216HW,2013-02-18 19:05:00,
2013-02-18 14:10:00,39.0,14.1,30.21,North,10,4.3,7.5,36,0.00,,,0.00,WUHU216HW,2013-02-18 19:10:00,
2013-02-18 14:15:00,39.0,14.1,30.20,NE,55,4.6,7.5,36,0.00,,,0.00,WUHU216HW,2013-02-18 19:15:00,
2013-02-18 14:20:00,39.0,12.7,30.20,North,10,5.0,12.2,34,0.00,,,0.00,WUHU216HW,2013-02-18 19:20:00,
2013-02-18 14:25:00,39.8,12.8,30.20,NNW,348,12.2,14.7,33,0.00,,,0.00,WUHU216HW,2013-02-18 19:25:00,
2013-02-18 14:30:00,39.8,13.5,30.20,NE,55,5.4,14.7,34,0.00,,,0.00,WUHU216HW,2013-02-18 19:30:00,
2013-02-18 14:35:00,39.9,13.5,30.20,North,10,3.2,12.2,34,0.00,,,0.00,WUHU216HW,2013-02-18 19:35:00,
2013-02-18 14:40:00,39.8,13.5,30.20,North,10,15.7,15.7,34,0.00,,,0.00,WUHU216HW,2013-02-18 19:40:00,
2013-02-18 14:45:00,40.1,15.0,30.19,North,10,6.4,15.7,36,0.00,,,0.00,WUHU216HW,2013-02-18 19:45:00,
2013-02-18 14:50:00,40.3,13.9,30.19,WNW,303,4.0,16.2,34,0.00,,,0.00,WUHU216HW,2013-02-18 19:50:00,
2013-02-18 14:55:00,40.3,13.9,30.19,North,10,7.5,16.2,34,0.00,,,0.00,WUHU216HW,2013-02-18 19:55:00,
2013-02-18 15:00:00,40.7,14.9,30.19,ENE,78,2.9,9.3,35,0.00,,,0.00,WUHU216HW,2013-02-18 20:00:00,
2013-02-18 15:05:00,40.8,13.7,30.19,NNE,33,6.9,13.0,33,0.00,,,0.00,WUHU216HW,2013-02-18 20:05:00,
2013-02-18 15:10:00,40.8,14.3,30.19,North,10,9.0,13.0,34,0.00,,,0.00,WUHU216HW,2013-02-18 20:10:00,
2013-02-18 15:15:00,40.7,14.3,30.19,North,10,13.6,13.6,34,0.00,,,0.00,WUHU216HW,2013-02-18 20:15:00,
2013-02-18 15:20:00,40.7,14.9,30.18,NNW,348,1.1,13.6,35,0.00,,,0.00,WUHU216HW,2013-02-18 20:20:00,
2013-02-18 15:25:00,40.8,14.3,30.18,NNE,33,5.8,14.7,34,0.00,,,0.00,WUHU216HW,2013-02-18 20:25:00,
2013-02-18 15:30:00,40.8,15.7,30.18,North,10,5.8,14.7,36,0.00,,,0.00,WUHU216HW,2013-02-18 20:30:00,
2013-02-18 15:35:00,41.0,15.2,30.18,North,10,6.9,13.6,35,0.00,,,0.00,WUHU216HW,2013-02-18 20:35:00,
2013-02-18 15:40:00,41.0,15.8,30.18,North,10,8.2,13.6,36,0.00,,,0.00,WUHU216HW,2013-02-18 20:40:00,
2013-02-18 15:45:00,41.4,16.8,30.18,North,10,3.5,13.6,37,0.00,,,0.00,WUHU216HW,2013-02-18 20:45:00,
2013-02-18 15:50:00,41.7,16.5,30.18,NNW,348,12.5,12.5,36,0.00,,,0.00,WUHU216HW,2013-02-18 20:50:00,
2013-02-18 15:55:00,41.9,15.3,30.17,North,10,11.0,12.5,34,0.00,,,0.00,WUHU216HW,2013-02-18 20:55:00,
2013-02-18 16:00:00,41.6,16.4,30.17,North,10,12.2,14.2,36,0.00,,,0.00,WUHU216HW,2013-02-18 21:00:00,
2013-02-18 16:05:00,41.2,16.0,30.17,NNW,348,7.2,14.2,36,0.00,,,0.00,WUHU216HW,2013-02-18 21:05:00,
2013-02-18 16:10:00,41.0,15.2,30.16,NE,55,2.9,12.2,35,0.00,,,0.00,WUHU216HW,2013-02-18 21:10:00,
2013-02-18 16:15:00,40.8,15.0,30.17,ENE,78,1.1,11.5,35,0.00,,,0.00,WUHU216HW,2013-02-18 21:15:00,
2013-02-18 16:20:00,40.5,14.7,30.17,SE,145,0.6,4.0,35,0.00,,,0.00,WUHU216HW,2013-02-18 21:20:00,
2013-02-18 16:25:00,40.5,15.4,30.17,NNW,348,0.6,5.0,36,0.00,,,0.00,WUHU216HW,2013-02-18 21:25:00,
2013-02-18 16:30:00,40.5,15.4,30.17,SSW,213,0.6,5.0,36,0.00,,,0.00,WUHU216HW,2013-02-18 21:30:00,
2013-02-18 16:35:00,40.5,14.7,30.17,SSW,213,0.6,6.4,35,0.00,,,0.00,WUHU216HW,2013-02-18 21:35:00,
2013-02-18 16:40:00,40.5,14.7,30.17,NNE,33,1.8,6.4,35,0.00,,,0.00,WUHU216HW,2013-02-18 21:40:00,
2013-02-18 16:45:00,40.5,15.4,30.17,NNE,33,1.4,4.0,36,0.00,,,0.00,WUHU216HW,2013-02-18 21:45:00,
2013-02-18 16:50:00,40.3,15.2,30.17,NE,55,1.4,2.9,36,0.00,,,0.00,WUHU216HW,2013-02-18 21:50:00,
2013-02-18 16:55:00,40.1,15.0,30.17,South,190,0.3,2.6,36,0.00,,,0.00,WUHU216HW,2013-02-18 21:55:00,
2013-02-18 17:00:00,39.8,15.4,30.17,NNE,33,0.6,2.6,37,0.00,,,0.00,WUHU216HW,2013-02-18 22:00:00,
2013-02-18 17:05:00,39.6,15.8,30.17,NNE,33,0.0,2.6,38,0.00,,,0.00,WUHU216HW,2013-02-18 22:05:00,
2013-02-18 17:10:00,39.2,15.5,30.17,NE,55,1.8,1.8,38,0.00,,,0.00,WUHU216HW,2013-02-18 22:10:00,
2013-02-18 17:15:00,39.0,15.9,30.17,North,10,4.6,4.6,39,0.00,,,0.00,WUHU216HW,2013-02-18 22:15:00,
2013-02-18 17:20:00,38.9,15.8,30.17,North,10,1.8,5.0,39,0.00,,,0.00,WUHU216HW,2013-02-18 22:20:00,
2013-02-18 17:25:00,38.7,15.6,30.17,NNE,33,0.0,5.0,39,0.00,,,0.00,WUHU216HW,2013-02-18 22:25:00,
2013-02-18 17:30:00,38.1,15.7,30.17,NNE,33,0.0,1.8,40,0.00,,,0.00,WUHU216HW,2013-02-18 22:30:00,
2013-02-18 17:35:00,37.8,15.4,30.17,ENE,78,0.6,0.6,40,0.00,,,0.00,WUHU216HW,2013-02-18 22:35:00,
2013-02-18 17:40:00,37.1,15.9,30.17,East,100,0.0,1.1,42,0.00,,,0.00,WUHU216HW,2013-02-18 22:40:00,
2013-02-18 17:45:00,36.3,15.8,30.17,ENE,78,0.6,1.8,43,0.00,,,0.00,WUHU216HW,2013-02-18 22:45:00,
2013-02-18 17:50:00,34.7,14.9,30.17,ENE,78,0.6,1.8,44,0.00,,,0.00,WUHU216HW,2013-02-18 22:50:00,
2013-02-18 17:55:00,33.8,14.6,30.17,East,100,0.6,0.6,45,0.00,,,0.00,WUHU216HW,2013-02-18 22:55:00,
2013-02-18 18:00:00,33.5,14.3,30.17,ESE,123,0.0,1.1,45,0.00,,,0.00,WUHU216HW,2013-02-18 23:00:00,
2013-02-18 18:05:00,32.9,14.2,30.17,East,100,0.0,1.1,46,0.00,,,0.00,WUHU216HW,2013-02-18 23:05:00,
2013-02-18 18:11:00,32.6,14.0,30.16,East,100,0.6,0.6,46,0.00,,,0.00,WUHU216HW,2013-02-18 23:11:00,
2013-02-18 18:16:00,32.2,14.1,30.16,East,100,0.0,0.6,47,0.00,,,0.00,WUHU216HW,2013-02-18 23:16:00,
2013-02-18 18:21:00,31.7,14.1,30.16,East,100,0.0,0.6,48,0.00,,,0.00,WUHU216HW,2013-02-18 23:21:00,
2013-02-18 18:26:00,31.7,14.1,30.16,ESE,123,0.0,0.6,48,0.00,,,0.00,WUHU216HW,2013-02-18 23:26:00,
2013-02-18 18:31:00,31.8,14.7,30.16,East,100,0.0,0.6,49,0.00,,,0.00,WUHU216HW,2013-02-18 23:31:00,
2013-02-18 18:36:00,32.0,14.9,30.17,East,100,0.6,1.8,49,0.00,,,0.00,WUHU216HW,2013-02-18 23:36:00,
2013-02-18 18:41:00,32.0,14.9,30.16,East,100,0.0,1.8,49,0.00,,,0.00,WUHU216HW,2013-02-18 23:41:00,
2013-02-18 18:46:00,32.2,15.1,30.16,ESE,123,0.3,0.6,49,0.00,,,0.00,WUHU216HW,2013-02-18 23:46:00,
2013-02-18 18:51:00,32.2,15.1,30.16,ESE,123,0.0,0.3,49,0.00,,,0.00,WUHU216HW,2013-02-18 23:51:00,
2013-02-18 18:56:00,32.0,14.9,30.16,SE,145,0.0,0.6,49,0.00,,,0.00,WUHU216HW,2013-02-18 23:56:00,
2013-02-18 19:01:00,31.8,15.2,30.16,ESE,123,0.3,1.8,50,0.00,,,0.00,WUHU216HW,2013-02-19 00:01:00,
2013-02-18 19:06:00,32.0,15.4,30.15,ESE,123,0.0,1.8,50,0.00,,,0.00,WUHU216HW,2013-02-19 00:06:00,
2013-02-18 19:11:00,32.2,15.1,30.16,ENE,78,0.6,1.8,49,0.00,,,0.00,WUHU216HW,2013-02-19 00:11:00,
2013-02-18 19:16:00,32.2,15.1,30.16,ENE,78,0.6,2.6,49,0.00,,,0.00,WUHU216HW,2013-02-19 00:16:00,
2013-02-18 19:21:00,32.4,15.3,30.16,East,100,0.6,2.6,49,0.00,,,0.00,WUHU216HW,2013-02-19 00:21:00,
2013-02-18 19:26:00,32.2,15.1,30.16,East,100,0.0,1.1,49,0.00,,,0.00,WUHU216HW,2013-02-19 00:26:00,
2013-02-18 19:31:00,32.2,15.1,30.16,East,100,0.0,1.4,49,0.00,,,0.00,WUHU216HW,2013-02-19 00:31:00,
2013-02-18 19:36:00,32.2,15.1,30.16,East,100,0.0,1.4,49,0.00,,,0.00,WUHU216HW,2013-02-19 00:36:00,
2013-02-18 19:41:00,31.8,14.7,30.15,East,100,0.0,0.3,49,0.00,,,0.00,WUHU216HW,2013-02-19 00:41:00,
2013-02-18 19:46:00,31.7,14.6,30.15,East,100,0.0,0.6,49,0.00,,,0.00,WUHU216HW,2013-02-19 00:46:00,
2013-02-18 19:51:00,31.7,15.1,30.15,WNW,303,0.0,0.6,50,0.00,,,0.00,WUHU216HW,2013-02-19 00:51:00,
2013-02-18 19:56:00,32.0,15.4,30.14,NE,55,0.6,0.6,50,0.00,,,0.00,WUHU216HW,2013-02-19 00:56:00,
2013-02-18 20:01:00,32.2,15.1,30.14,East,100,0.0,0.6,49,0.00,,,0.00,WUHU216HW,2013-02-19 01:01:00,
2013-02-18 20:06:00,32.4,15.4,30.13,East,100,0.0,0.6,49,0.00,,,0.00,WUHU216HW,2013-02-19 01:06:00,
2013-02-18 20:12:00,32.2,15.2,30.13,East,100,0.0,0.3,49,0.00,,,0.00,WUHU216HW,2013-02-19 01:12:00,
2013-02-18 20:17:00,32.2,15.8,30.13,East,100,0.0,0.3,50,0.00,,,0.00,WUHU216HW,2013-02-19 01:17:00,
2013-02-18 20:22:00,32.0,15.7,30.13,ENE,78,0.0,0.0,51,0.00,,,0.00,WUHU216HW,2013-02-19 01:22:00,
2013-02-18 20:27:00,31.8,16.0,30.13,ENE,78,0.3,0.6,52,0.00,,,0.00,WUHU216HW,2013-02-19 01:27:00,
2013-02-18 20:32:00,31.7,16.4,30.13,ENE,78,0.6,0.6,53,0.00,,,0.00,WUHU216HW,2013-02-19 01:32:00,
2013-02-18 20:37:00,31.7,16.5,30.13,ENE,78,0.0,0.6,53,0.00,,,0.00,WUHU216HW,2013-02-19 01:37:00,
2013-02-18 20:42:00,31.5,16.4,30.13,East,100,0.3,0.6,53,0.00,,,0.00,WUHU216HW,2013-02-19 01:42:00,
2013-02-18 20:47:00,31.3,16.7,30.12,East,100,0.0,0.3,54,0.00,,,0.00,WUHU216HW,2013-02-19 01:47:00,
2013-02-18 20:52:00,30.9,16.3,30.13,East,100,0.0,0.3,54,0.00,,,0.00,WUHU216HW,2013-02-19 01:52:00,
2013-02-18 20:57:00,30.2,15.7,30.13,East,100,0.0,0.0,55,0.00,,,0.00,WUHU216HW,2013-02-19 01:57:00,
2013-02-18 21:02:00,29.3,15.8,30.13,SE,145,0.0,1.1,57,0.00,,,0.00,WUHU216HW,2013-02-19 02:02:00,
2013-02-18 21:07:00,29.1,15.7,30.13,SE,145,0.0,1.1,57,0.00,,,0.00,WUHU216HW,2013-02-19 02:07:00,
2013-02-18 21:12:00,29.0,15.6,30.13,SE,145,0.0,0.0,57,0.00,,,0.00,WUHU216HW,2013-02-19 02:12:00,
2013-02-18 21:17:00,28.6,15.7,30.12,ESE,123,0.0,0.3,58,0.00,,,0.00,WUHU216HW,2013-02-19 02:17:00,
2013-02-18 21:22:00,28.6,15.8,30.12,East,100,0.0,1.1,58,0.00,,,0.00,WUHU216HW,2013-02-19 02:22:00,
2013-02-18 21:27:00,28.4,16.0,30.12,East,100,0.0,1.1,59,0.00,,,0.00,WUHU216HW,2013-02-19 02:27:00,
2013-02-18 21:32:00,28.6,15.9,30.12,East,100,0.0,0.0,58,0.00,,,0.00,WUHU216HW,2013-02-19 02:32:00,
2013-02-18 21:37:00,28.6,16.3,30.12,East,100,0.0,0.0,60,0.00,,,0.00,WUHU216HW,2013-02-19 02:37:00,
2013-02-18 21:42:00,28.6,16.4,30.12,East,100,0.0,0.0,60,0.00,,,0.00,WUHU216HW,2013-02-19 02:42:00,
2013-02-18 21:47:00,28.6,16.4,30.12,East,100,0.0,0.0,60,0.00,,,0.00,WUHU216HW,2013-02-19 02:47:00,
2013-02-18 21:52:00,28.4,16.7,30.11,East,100,0.0,0.0,61,0.00,,,0.00,WUHU216HW,2013-02-19 02:52:00,
2013-02-18 21:57:00,28.6,17.3,30.12,East,100,0.0,0.0,62,0.00,,,0.00,WUHU216HW,2013-02-19 02:57:00,
2013-02-18 22:02:00,28.6,17.3,30.11,East,100,0.0,0.0,62,0.00,,,0.00,WUHU216HW,2013-02-19 03:02:00,
2013-02-18 22:07:00,28.6,17.4,30.11,East,100,0.0,0.0,62,0.00,,,0.00,WUHU216HW,2013-02-19 03:07:00,
2013-02-18 22:12:00,28.6,17.4,30.11,NNW,348,0.0,1.1,62,0.00,,,0.00,WUHU216HW,2013-02-19 03:12:00,
2013-02-18 22:17:00,28.8,17.6,30.11,NE,55,0.0,1.1,63,0.00,,,0.00,WUHU216HW,2013-02-19 03:17:00,
2013-02-18 22:22:00,29.1,18.0,30.11,NE,55,0.0,0.0,63,0.00,,,0.00,WUHU216HW,2013-02-19 03:22:00,
2013-02-18 22:27:00,29.1,18.0,30.10,NE,55,0.0,0.0,63,0.00,,,0.00,WUHU216HW,2013-02-19 03:27:00,
2013-02-18 22:32:00,29.1,18.4,30.10,NE,55,0.0,0.0,64,0.00,,,0.00,WUHU216HW,2013-02-19 03:32:00,
2013-02-18 22:37:00,29.5,18.9,30.10,NE,55,0.0,0.0,64,0.00,,,0.00,WUHU216HW,2013-02-19 03:37:00,
2013-02-18 22:42:00,29.7,18.7,30.10,NE,55,0.0,0.0,63,0.00,,,0.00,WUHU216HW,2013-02-19 03:42:00,
2013-02-18 22:47:00,29.7,18.8,30.10,North,10,0.6,0.6,63,0.00,,,0.00,WUHU216HW,2013-02-19 03:47:00,
2013-02-18 22:53:00,29.5,18.6,30.10,East,100,0.0,1.4,63,0.00,,,0.00,WUHU216HW,2013-02-19 03:53:00,
2013-02-18 22:58:00,29.1,18.6,30.10,ESE,123,0.0,1.4,64,0.00,,,0.00,WUHU216HW,2013-02-19 03:58:00,
2013-02-18 23:03:00,29.0,18.6,30.09,NE,55,0.0,1.4,65,0.00,,,0.00,WUHU216HW,2013-02-19 04:03:00,
2013-02-18 23:08:00,29.0,19.0,30.09,East,100,0.0,0.3,66,0.00,,,0.00,WUHU216HW,2013-02-19 04:08:00,
2013-02-18 23:13:00,28.8,19.2,30.09,East,100,0.0,0.6,67,0.00,,,0.00,WUHU216HW,2013-02-19 04:13:00,
2013-02-18 23:18:00,29.0,19.4,30.09,NE,55,0.0,0.6,67,0.00,,,0.00,WUHU216HW,2013-02-19 04:18:00,
2013-02-18 23:23:00,29.5,19.9,30.09,NE,55,0.0,0.6,67,0.00,,,0.00,WUHU216HW,2013-02-19 04:23:00,
2013-02-18 23:28:00,30.0,20.4,30.08,NE,55,0.0,0.3,67,0.00,,,0.00,WUHU216HW,2013-02-19 04:28:00,
2013-02-18 23:33:00,30.0,20.5,30.08,ENE,78,0.0,0.6,67,0.00,,,0.00,WUHU216HW,2013-02-19 04:33:00,
2013-02-18 23:38:00,30.4,20.9,30.08,ENE,78,0.0,0.6,67,0.00,,,0.00,WUHU216HW,2013-02-19 04:38:00,
2013-02-18 23:43:00,30.8,20.9,30.08,ENE,78,0.0,0.0,66,0.00,,,0.00,WUHU216HW,2013-02-19 04:43:00,
2013-02-18 23:48:00,30.9,21.1,30.08,ENE,78,0.0,0.0,66,0.00,,,0.00,WUHU216HW,2013-02-19 04:48:00,
2013-02-18 23:53:00,30.8,20.6,30.08,NW,325,0.0,0.3,66,0.00,,,0.00,WUHU216HW,2013-02-19 04:53:00,
2013-02-18 23:58:00,30.4,20.3,30.07,North,10,1.8,4.0,66,0.00,,,0.00,WUHU216HW,2013-02-19 04:58:00,